SCP
0 0 0 0 0 0 0 0 0 0 0 0 0 0 0 0 0 0 0 0 0 0 0 0 0 0 0
0 0 0 0 0 0 0 0 0 0 0 0 0 0 0 0 0 0 0 0 0 0 0 0 0 0 0
0 0 0 0 0 0 0 0 0 0 0 0 0 0 0 0 0 0 0 0 0 0 0 0 0 0 0
0 0 0 0 0 0 0 0 0 0 0 0 0 0 0 0 0 0 0 0 0 0 0 0 0 0 0
0 0 0 0 0 0 0 0 0 0 0 0 0 0 0 0 0 0 0 0 0 0 0 0 0 0 0
0 0 0 0 0 0 0 0 0 0 0 0 0 0 0 0 0 0 0 0 0 0 0 0 0 0 0
0 0 0 0 0 0 0 0 0 0 0 0 0 0 0 0 0 0 0 0 0 0 -0 -0 -0 0 -0
0 0 0 0 0 0 0 0 0 0 0 0 0 0 0 0 0 0 0 0 0 0 -0 -0 0 0 -0
0 0 0 0 0 0 0 0 0 0 0 0 0 0 0 0 0 0 0 0 0 0 0 0 0 0 0
0 0 0 0 0 0 0 0 0 0 0 0 0 0 0 0 0 0 0 0 0 0 0 0 0 0 0
0 0 0 0 0 0 0 0 0 0 0 0 0 0 0 0 0 0 0 0 0 0 0 0 0 0 0
0 0 0 0 0 0 0 0 0 0 0 0 0 0 0 0 0 0 0 0 0 0 0 0 0 0 0
0 0 0 0 0 0 0 0 0 0 0 0 0 0 0 0 0 0 0 0 0 0 0 0 0 0 0
0 0 0 0 0 0 0 0 0 0 0 0 0 0 0 0 0 0 0 0 0 0 0 0 0 0 0
-0 0 0 0 0 0 0 0 0 0 0 0 0 0 0 0 0 0 0 0 0 0 0 0 0 0 0
0 -0 0 0 0 0 0 0 0 0 0 0 0 0 0 0 0 0 0 0 0 0 0 0 0 0 0
Wind_Speed_500mb
18 22 19 27 32 35 38 43 26 25 25 27 35 37 34 19 17 23 26 29 36 39 34 27 22 22 19
16 22 25 25 29 40 37 34 28 24 27 27 29 37 37 24 18 23 25 26 34 40 36 27 24 19 16
20 20 28 25 25 44 41 38 40 29 21 27 31 34 35 34 28 28 26 25 34 38 38 29 25 21 17
19 20 25 30 23 35 46 43 32 40 28 22 28 37 39 40 35 37 34 32 29 35 40 34 24 17 14
21 22 23 28 29 37 38 45 49 49 54 29 26 31 42 45 47 45 37 35 30 34 38 29 21 15 11
22 25 27 29 31 33 33 47 46 49 56 58 28 26 40 55 58 48 42 38 38 34 29 26 20 16 13
22 23 27 27 28 35 39 37 39 33 43 63 49 22 35 60 57 46 47 44 45 35 27 28 23 19 14
23 23 27 31 32 35 36 37 44 36 40 51 52 42 27 41 51 51 47 44 41 38 33 28 22 18 15
30 24 25 31 32 31 29 31 35 45 51 44 52 57 45 40 50 49 45 45 47 44 38 33 24 15 11
32 29 25 28 31 29 30 31 32 40 48 62 59 54 59 48 50 48 42 40 39 36 33 29 22 13 8
29 28 25 26 28 25 26 25 32 42 47 59 67 60 60 65 55 54 44 46 46 41 36 29 20 13 9
31 24 22 21 22 22 27 25 28 34 53 55 66 65 59 67 58 61 55 55 50 42 36 26 19 14 11
30 26 13 14 18 23 25 26 25 29 44 61 70 67 62 61 65 68 62 59 54 41 35 30 27 20 15
30 26 20 10 15 20 23 22 21 20 40 60 79 80 60 62 59 66 62 66 54 48 47 34 23 26 25
26 23 20 9 12 14 14 16 12 16 30 65 75 80 62 64 58 58 64 68 59 57 45 25 13 12 24
23 19 17 7 9 9 6 5 4 6 27 49 59 69 68 63 57 59 64 62 60 61 55 43 19 17 19
Wind_Direction_500mb
273 262 243 248 236 218 221 213 229 209 204 203 207 199 194 196 192 158 157 160 168 164 158 160 159 163 165
284 254 248 234 236 213 190 188 199 206 208 202 206 208 197 199 211 184 177 175 171 171 165 173 170 170 171
292 259 244 241 213 206 204 201 197 195 209 206 208 213 208 209 206 195 172 156 168 176 178 184 181 182 194
285 279 253 235 224 195 200 207 217 213 205 213 211 215 218 212 206 191 171 160 166 173 176 183 188 184 181
269 270 265 247 234 212 209 205 217 215 212 219 225 215 209 206 203 195 191 178 158 169 174 181 184 171 171
282 261 260 246 237 229 220 223 220 215 213 203 236 222 213 210 208 204 176 162 160 164 178 176 165 149 150
288 263 260 255 243 244 238 231 228 209 202 201 220 248 220 213 207 209 186 169 156 164 177 172 156 141 129
301 275 259 253 250 235 240 238 235 222 195 194 213 244 233 227 209 209 197 170 162 165 178 175 165 149 134
316 299 270 255 256 245 238 235 229 228 209 201 200 227 237 230 215 218 193 181 178 176 181 173 172 162 138
314 311 286 253 254 258 252 242 235 221 216 205 200 215 217 231 219 210 202 188 184 182 184 185 176 163 164
312 308 302 270 243 251 260 256 238 224 222 213 207 215 218 209 215 210 203 195 185 188 194 191 184 176 191
308 306 303 273 247 248 256 261 250 238 219 217 209 207 218 200 206 207 206 196 194 192 193 189 183 187 207
316 311 292 248 254 252 249 263 252 263 223 217 209 205 209 204 197 210 200 196 195 197 195 192 204 208 224
322 320 313 270 234 249 243 246 246 270 232 226 205 201 204 200 206 211 199 200 201 194 196 191 204 216 233
326 327 316 265 217 223 244 239 251 272 231 206 201 203 206 195 197 211 208 201 198 191 198 185 181 199 198
331 338 330 275 233 249 217 218 208 41 223 196 199 203 209 187 196 210 212 205 200 195 196 203 207 200 176
Wind_Speed_850mb
18 22 19 27 32 35 38 43 26 25 25 27 35 37 34 19 17 23 26 29 36 39 34 27 22 22 19
16 22 25 25 29 40 37 34 28 24 27 27 29 37 37 24 18 23 25 26 34 40 36 27 24 19 16
20 20 28 25 25 44 41 38 40 29 21 27 31 34 35 34 28 28 26 25 34 38 38 29 25 21 17
19 20 25 30 23 35 46 43 32 40 28 22 28 37 39 40 35 37 34 32 29 35 40 34 24 17 14
21 22 23 28 29 37 38 45 49 49 54 29 26 31 42 45 47 45 37 35 30 34 38 29 21 15 11
22 25 27 29 31 33 33 47 46 49 56 58 28 26 40 55 58 48 42 38 38 34 29 26 20 16 13
22 23 27 27 28 35 39 37 39 33 43 63 49 22 35 60 57 46 47 44 45 35 27 28 23 19 14
23 23 27 31 32 35 36 37 44 36 40 51 52 42 27 41 51 51 47 44 41 38 33 28 22 18 15
30 24 25 31 32 31 29 31 35 45 51 44 52 57 45 40 50 49 45 45 47 44 38 33 24 15 11
32 29 25 28 31 29 30 31 32 40 48 62 59 54 59 48 50 48 42 40 39 36 33 29 22 13 8
29 28 25 26 28 25 26 25 32 42 47 59 67 60 60 65 55 54 44 46 46 41 36 29 20 13 9
31 24 22 21 22 22 27 25 28 34 53 55 66 65 59 67 58 61 55 55 50 42 36 26 19 14 11
30 26 13 14 18 23 25 26 25 29 44 61 70 67 62 61 65 68 62 59 54 41 35 30 27 20 15
30 26 20 10 15 20 23 22 21 20 40 60 79 80 60 62 59 66 62 66 54 48 47 34 23 26 25
26 23 20 9 12 14 14 16 12 16 30 65 75 80 62 64 58 58 64 68 59 57 45 25 13 12 24
23 19 17 7 9 9 6 5 4 6 27 49 59 69 68 63 57 59 64 62 60 61 55 43 19 17 19
Wind_Direction_850mb
273 262 243 248 236 218 221 213 229 209 204 203 207 199 194 196 192 158 157 160 168 164 158 160 159 163 165
284 254 248 234 236 213 190 188 199 206 208 202 206 208 197 199 211 184 177 175 171 171 165 173 170 170 171
292 259 244 241 213 206 204 201 197 195 209 206 208 213 208 209 206 195 172 156 168 176 178 184 181 182 194
285 279 253 235 224 195 200 207 217 213 205 213 211 215 218 212 206 191 171 160 166 173 176 183 188 184 181
269 270 265 247 234 212 209 205 217 215 212 219 225 215 209 206 203 195 191 178 158 169 174 181 184 171 171
282 261 260 246 237 229 220 223 220 215 213 203 236 222 213 210 208 204 176 162 160 164 178 176 165 149 150
288 263 260 255 243 244 238 231 228 209 202 201 220 248 220 213 207 209 186 169 156 164 177 172 156 141 129
301 275 259 253 250 235 240 238 235 222 195 194 213 244 233 227 209 209 197 170 162 165 178 175 165 149 134
316 299 270 255 256 245 238 235 229 228 209 201 200 227 237 230 215 218 193 181 178 176 181 173 172 162 138
314 311 286 253 254 258 252 242 235 221 216 205 200 215 217 231 219 210 202 188 184 182 184 185 176 163 164
312 308 302 270 243 251 260 256 238 224 222 213 207 215 218 209 215 210 203 195 185 188 194 191 184 176 191
308 306 303 273 247 248 256 261 250 238 219 217 209 207 218 200 206 207 206 196 194 192 193 189 183 187 207
316 311 292 248 254 252 249 263 252 263 223 217 209 205 209 204 197 210 200 196 195 197 195 192 204 208 224
322 320 313 270 234 249 243 246 246 270 232 226 205 201 204 200 206 211 199 200 201 194 196 191 204 216 233
326 327 316 265 217 223 244 239 251 272 231 206 201 203 206 195 197 211 208 201 198 191 198 185 181 199 198
331 338 330 275 233 249 217 218 208 41 223 196 199 203 209 187 196 210 212 205 200 195 196 203 207 200 176